| time (UTC) | temp F | wind direction | speed knots | gust knots | rain 1hr in | rain 24hr in | rain mn in | humidity % | barometer mb |
| 20260506231832 | 69 | 13 | 2.6 | 9.6 | 0.00 | 0.00 | 0.00 | 44 | 1012.2 |
| 20260506230822 | 70 | 242 | 1.7 | 13.0 | 0.00 | 0.00 | 0.00 | 44 | 1012.1 |
| 20260506225827 | 70 | 43 | 1.7 | 13.9 | 0.00 | 0.00 | 0.00 | 45 | 1012.2 |
| 20260506224818 | 70 | 336 | 1.7 | 10.4 | 0.00 | 0.00 | 0.00 | 43 | 1012.2 |
| 20260506223829 | 70 | 337 | 2.6 | 13.0 | 0.00 | 0.00 | 0.00 | 42 | 1012.0 |
| 20260506222820 | 71 | 29 | 4.3 | 12.2 | 0.00 | 0.00 | 0.00 | 41 | 1012.9 |
| 20260506221816 | 71 | 360 | 3.5 | 12.2 | 0.00 | 0.00 | 0.00 | 43 | 1012.9 |
| 20260506220828 | 72 | 268 | 4.3 | 15.6 | 0.00 | 0.00 | 0.00 | 43 | 1012.7 |
| 20260506215819 | 73 | 266 | 3.5 | 9.6 | 0.00 | 0.00 | 0.00 | 42 | 1012.7 |
| 20260506214831 | 73 | 315 | 3.5 | 13.0 | 0.00 | 0.00 | 0.00 | 42 | 1012.7 |
| 20260506213826 | 74 | 316 | 3.5 | 11.3 | 0.00 | 0.00 | 0.00 | 44 | 1012.9 |
| 20260506212818 | 75 | 123 | 1.7 | 14.8 | 0.00 | 0.00 | 0.00 | 43 | 1012.7 |
| 20260506211829 | 75 | 360 | 4.3 | 13.0 | 0.00 | 0.00 | 0.00 | 43 | 1012.7 |
| 20260506210822 | 74 | 146 | 3.5 | 13.0 | 0.00 | 0.00 | 0.00 | 43 | 1012.6 |
| 20260506205819 | 75 | 309 | 2.6 | 12.2 | 0.00 | 0.00 | 0.00 | 42 | 1012.6 |
| 20260506204830 | 75 | 45 | 4.3 | 13.9 | 0.00 | 0.00 | 0.00 | 41 | 1012.6 |
| 20260506203822 | 76 | 328 | 3.5 | 12.2 | 0.00 | 0.00 | 0.00 | 44 | 1012.5 |
| 20260506202833 | 77 | 342 | 2.6 | 10.4 | 0.00 | 0.00 | 0.00 | 41 | 1012.4 |
| 20260506201823 | 77 | 277 | 2.6 | 9.6 | 0.00 | 0.00 | 0.00 | 42 | 1012.4 |
| 20260506200836 | 77 | 323 | 3.5 | 9.6 | 0.00 | 0.00 | 0.00 | 42 | 1012.3 |
| 20260506195825 | 76 | 355 | 2.6 | 8.7 | 0.00 | 0.00 | 0.00 | 42 | 1012.1 |
| 20260506194817 | 77 | 21 | 1.7 | 9.6 | 0.00 | 0.00 | 0.00 | 41 | 1012.1 |
| 20260506193829 | 77 | 325 | 2.6 | 13.0 | 0.00 | 0.00 | 0.00 | 41 | 1012.3 |
| 20260506192826 | 76 | 325 | 4.3 | 15.6 | 0.00 | 0.00 | 0.00 | 40 | 1012.3 |
| 20260506191818 | 76 | 336 | 3.5 | 19.1 | 0.00 | 0.00 | 0.00 | 38 | 1012.3 |
| 20260506190829 | 77 | 254 | 2.6 | 15.6 | 0.00 | 0.00 | 0.00 | 37 | 1011.9 |
| 20260506185821 | 77 | 55 | 3.5 | 13.9 | 0.00 | 0.00 | 0.00 | 38 | 1011.9 |
| 20260506184833 | 76 | 348 | 4.3 | 13.0 | 0.00 | 0.00 | 0.00 | 36 | 1011.9 |
| 20260506183827 | 76 | 5 | 3.5 | 11.3 | 0.00 | 0.00 | 0.00 | 37 | 1011.4 |
| 20260506182821 | 76 | 302 | 6.1 | 11.3 | 0.00 | 0.00 | 0.00 | 38 | 1011.8 |
| 20260506181816 | 76 | 279 | 4.3 | 13.0 | 0.00 | 0.00 | 0.00 | 39 | 1011.8 |
| 20260506175820 | 75 | 115 | 4.3 | 12.2 | 0.00 | 0.00 | 0.00 | 39 | 1012.0 |
| 20260506174832 | 75 | 251 | 5.2 | 12.2 | 0.00 | 0.00 | 0.00 | 39 | 1012.0 |
| 20260506173823 | 75 | 360 | 3.5 | 9.6 | 0.00 | 0.00 | 0.00 | 43 | 1012.4 |
| 20260506172833 | 74 | 355 | 2.6 | 10.4 | 0.00 | 0.00 | 0.00 | 42 | 1012.5 |
| 20260506171824 | 74 | 317 | 5.2 | 9.6 | 0.00 | 0.00 | 0.00 | 42 | 1012.5 |
| 20260506170834 | 73 | 14 | 1.7 | 9.6 | 0.00 | 0.00 | 0.00 | 46 | 1012.5 |
| 20260506165825 | 73 | 355 | 0.9 | 8.7 | 0.00 | 0.00 | 0.00 | 48 | 1012.7 |
| 20260506164818 | 72 | 254 | 1.7 | 7.8 | 0.00 | 0.00 | 0.00 | 47 | 1012.7 |
| 20260506163828 | 71 | 67 | 3.5 | 9.6 | 0.00 | 0.00 | 0.00 | 47 | 1012.8 |
| 20260506162817 | 71 | 5 | 2.6 | 12.2 | 0.00 | 0.00 | 0.00 | 47 | 1013.0 |
| 20260506161829 | 70 | 32 | 1.7 | 9.6 | 0.00 | 0.00 | 0.00 | 48 | 1013.0 |
| 20260506160819 | 69 | 350 | 2.6 | 10.4 | 0.00 | 0.00 | 0.00 | 51 | 1013.1 |
| 20260506155830 | 68 | 34 | 3.5 | 14.8 | 0.00 | 0.00 | 0.00 | 49 | 1013.0 |
| 20260506154822 | 67 | 300 | 2.6 | 9.6 | 0.00 | 0.00 | 0.00 | 52 | 1013.0 |
| 20260506153833 | 66 | 318 | 2.6 | 8.7 | 0.00 | 0.00 | 0.00 | 53 | 1013.2 |
| 20260506152826 | 66 | 330 | 2.6 | 9.6 | 0.00 | 0.00 | 0.00 | 55 | 1013.2 |
| 20260506151818 | 65 | 327 | 1.7 | 8.7 | 0.00 | 0.00 | 0.00 | 57 | 1013.2 |
| 20260506150827 | 64 | 34 | 5.2 | 15.6 | 0.00 | 0.00 | 0.00 | 58 | 1013.1 |
| 20260506145820 | 64 | 348 | 4.3 | 10.4 | 0.00 | 0.00 | 0.00 | 58 | 1013.1 |
| 20260506144828 | 63 | 262 | 1.7 | 10.4 | 0.00 | 0.00 | 0.00 | 59 | 1013.1 |
| 20260506143819 | 63 | 240 | 3.5 | 8.7 | 0.00 | 0.00 | 0.00 | 59 | 1013.1 |
| 20260506142832 | 63 | 262 | 0.9 | 4.3 | 0.00 | 0.00 | 0.00 | 59 | 1013.3 |
| 20260506141819 | 62 | 308 | 0.9 | 4.3 | 0.00 | 0.00 | 0.00 | 61 | 1013.3 |
| 20260506140817 | 61 | 280 | 0.9 | 3.5 | 0.00 | 0.00 | 0.00 | 63 | 1013.3 |
| 20260506135827 | 60 | 269 | 0.0 | 5.2 | 0.00 | 0.00 | 0.00 | 65 | 1013.3 |
| 20260506134838 | 59 | 360 | 0.9 | 3.5 | 0.00 | 0.00 | 0.00 | 67 | 1013.3 |
| 20260506133828 | 58 | 274 | 0.0 | 2.6 | 0.00 | 0.00 | 0.00 | 69 | 1013.2 |
| 20260506132837 | 57 | 81 | 1.7 | 9.6 | 0.00 | 0.00 | 0.00 | 70 | 1013.2 |
| 20260506131832 | 57 | 294 | 0.9 | 5.2 | 0.00 | 0.00 | 0.00 | 71 | 1013.2 |
| 20260506130822 | 57 | 333 | 0.9 | 4.3 | 0.00 | 0.00 | 0.00 | 71 | 1013.0 |
| 20260506125818 | 56 | 266 | 1.7 | 4.3 | 0.00 | 0.00 | 0.00 | 72 | 1013.0 |
| 20260506124830 | 55 | 237 | 0.0 | 4.3 | 0.00 | 0.00 | 0.00 | 72 | 1013.0 |
| 20260506123821 | 55 | 318 | 0.9 | 4.3 | 0.00 | 0.00 | 0.00 | 72 | 1013.0 |
| 20260506122831 | 55 | 263 | 0.0 | 2.6 | 0.00 | 0.00 | 0.00 | 71 | 1012.8 |
| 20260506121821 | 55 | 281 | 0.9 | 2.6 | 0.00 | 0.00 | 0.00 | 70 | 1012.8 |
| 20260506120832 | 56 | 293 | 0.0 | 0.0 | 0.00 | 0.00 | 0.00 | 67 | 1012.6 |
| 20260506115823 | 57 | 225 | 0.0 | 0.0 | 0.00 | 0.00 | 0.00 | 66 | 1012.3 |
| 20260506114836 | 58 | 214 | 0.9 | 3.5 | 0.00 | 0.00 | 0.00 | 66 | 1012.3 |
| 20260506113826 | 58 | 254 | 0.9 | 7.0 | 0.00 | 0.00 | 0.00 | 66 | 1012.3 |
| 20260506112838 | 58 | 308 | 1.7 | 6.1 | 0.00 | 0.00 | 0.00 | 65 | 1012.3 |
| 20260506111827 | 58 | 330 | 0.9 | 5.2 | 0.00 | 0.00 | 0.00 | 65 | 1012.3 |
| 20260506110838 | 59 | 324 | 1.7 | 5.2 | 0.00 | 0.00 | 0.00 | 64 | 1012.2 |
| 20260506105829 | 59 | 48 | 0.9 | 7.8 | 0.00 | 0.00 | 0.00 | 63 | 1012.1 |
| 20260506104819 | 59 | 96 | 0.0 | 5.2 | 0.00 | 0.00 | 0.00 | 64 | 1012.1 |
| 20260506103829 | 59 | 271 | 3.5 | 8.7 | 0.00 | 0.00 | 0.00 | 63 | 1011.9 |
| 20260506102821 | 59 | 302 | 0.9 | 7.0 | 0.00 | 0.00 | 0.00 | 63 | 1011.8 |
| 20260506101833 | 59 | 232 | 0.9 | 9.6 | 0.00 | 0.00 | 0.00 | 62 | 1011.8 |
| 20260506100823 | 60 | 323 | 1.7 | 8.7 | 0.00 | 0.00 | 0.00 | 61 | 1011.6 |
| 20260506095825 | 60 | 355 | 0.9 | 8.7 | 0.00 | 0.00 | 0.00 | 60 | 1011.6 |
| 20260506094824 | 60 | 348 | 0.9 | 6.1 | 0.00 | 0.00 | 0.00 | 60 | 1011.6 |
| 20260506093829 | 60 | 360 | 0.9 | 8.7 | 0.00 | 0.00 | 0.00 | 60 | 1011.6 |
| 20260506091824 | 59 | 330 | 0.0 | 3.5 | 0.00 | 0.00 | 0.00 | 61 | 1011.7 |
| 20260506090835 | 59 | 286 | 1.7 | 6.1 | 0.00 | 0.00 | 0.00 | 61 | 1011.6 |
| 20260506085827 | 59 | 229 | 0.0 | 3.5 | 0.00 | 0.00 | 0.00 | 62 | 1011.6 |
| 20260506084819 | 60 | 319 | 0.9 | 4.3 | 0.00 | 0.00 | 0.00 | 61 | 1011.6 |
| 20260506083831 | 60 | 342 | 1.7 | 6.1 | 0.00 | 0.00 | 0.00 | 61 | 1011.6 |
| 20260506082825 | 60 | 307 | 0.9 | 3.5 | 0.00 | 0.00 | 0.00 | 60 | 1011.6 |
| 20260506081834 | 60 | 342 | 0.0 | 5.2 | 0.00 | 0.00 | 0.00 | 60 | 1011.6 |
| 20260506080829 | 61 | 344 | 0.0 | 5.2 | 0.00 | 0.00 | 0.00 | 59 | 1011.5 |
| 20260506072835 | 61 | 343 | 1.7 | 4.3 | 0.00 | 0.00 | 0.00 | 59 | 1011.3 |
| 20260506071823 | 62 | 301 | 0.9 | 3.5 | 0.00 | 0.00 | 0.00 | 60 | 1011.3 |
| 20260506070819 | 62 | 351 | 0.9 | 5.2 | 0.00 | 0.00 | 0.00 | 59 | 1011.4 |
| 20260506061834 | 60 | 313 | 0.0 | 2.6 | 0.00 | 0.00 | 0.00 | 64 | 1011.3 |
| 20260506060822 | 61 | 243 | 0.0 | 2.6 | 0.00 | 0.00 | 0.00 | 64 | 1011.3 |
| 20260506050829 | 63 | 318 | 0.0 | 2.6 | 0.00 | 0.00 | 0.00 | 60 | 1010.8 |
| 20260506044838 | 64 | 333 | 0.9 | 6.1 | 0.00 | 0.00 | 0.00 | 59 | 1010.6 |
| 20260506042819 | 65 | 5 | 0.0 | 0.9 | 0.00 | 0.00 | 0.00 | 56 | 1010.2 |
| 20260506041829 | 67 | 78 | 0.0 | 0.9 | 0.00 | 0.00 | 0.00 | 53 | 1010.2 |
| 20260506040825 | 68 | 348 | 0.0 | 1.7 | 0.00 | 0.00 | 0.00 | 50 | 1010.1 |
| 20260506034838 | 70 | 360 | 0.0 | 2.6 | 0.00 | 0.00 | 0.00 | 47 | 1009.8 |
| 20260506033822 | 70 | 9 | 0.0 | 3.5 | 0.00 | 0.00 | 0.00 | 46 | 1009.4 |
| 20260506032831 | 71 | 312 | 0.0 | 3.5 | 0.00 | 0.00 | 0.00 | 44 | 1009.2 |
| 20260506031838 | 72 | 319 | 0.9 | 3.5 | 0.00 | 0.00 | 0.00 | 42 | 1009.2 |
| 20260506030830 | 73 | 271 | 0.9 | 7.8 | 0.00 | 0.00 | 0.00 | 40 | 1009.3 |
| 20260506025837 | 74 | 331 | 1.7 | 3.5 | 0.00 | 0.00 | 0.00 | 39 | 1009.2 |
| 20260506024825 | 74 | 36 | 1.7 | 5.2 | 0.00 | 0.00 | 0.00 | 36 | 1009.2 |
| 20260506022838 | 75 | 230 | 0.9 | 5.2 | 0.00 | 0.00 | 0.00 | 35 | 1008.8 |
| 20260506021834 | 76 | 337 | 2.6 | 7.0 | 0.00 | 0.00 | 0.00 | 34 | 1008.8 |
| 20260506020824 | 77 | 255 | 2.6 | 7.8 | 0.00 | 0.00 | 0.00 | 34 | 1009.0 |
| 20260506015829 | 77 | 198 | 1.7 | 6.1 | 0.00 | 0.00 | 0.00 | 34 | 1008.8 |
| 20260506014830 | 78 | 292 | 1.7 | 7.8 | 0.00 | 0.00 | 0.00 | 34 | 1008.8 |
| 20260506013835 | 79 | 307 | 2.6 | 7.8 | 0.00 | 0.00 | 0.00 | 34 | 1008.8 |
| 20260506012823 | 79 | 260 | 1.7 | 4.3 | 0.00 | 0.00 | 0.00 | 35 | 1008.7 |
| 20260506011837 | 80 | 232 | 0.0 | 6.1 | 0.00 | 0.00 | 0.00 | 35 | 1008.7 |
| 20260506010824 | 80 | 345 | 2.6 | 6.1 | 0.00 | 0.00 | 0.00 | 34 | 1008.9 |
| 20260506005829 | 81 | 281 | 0.0 | 5.2 | 0.00 | 0.00 | 0.00 | 34 | 1008.9 |
| 20260506004819 | 81 | 323 | 0.9 | 2.6 | 0.00 | 0.00 | 0.00 | 32 | 1008.9 |
| 20260506003823 | 81 | 240 | 0.9 | 3.5 | 0.00 | 0.00 | 0.00 | 32 | 1008.9 |
| 20260506002835 | 81 | 131 | 0.9 | 3.5 | 0.00 | 0.00 | 0.00 | 30 | 1008.7 |
| 20260506001838 | 82 | 122 | 1.7 | 4.3 | 0.00 | 0.00 | 0.00 | 33 | 1008.7 |
| 20260505235830 | 82 | 162 | 0.0 | 3.5 | 0.00 | 0.00 | 0.00 | 33 | 1009.2 |
| 20260505234835 | 82 | 235 | 1.7 | 4.3 | 0.00 | 0.00 | 0.00 | 32 | 1009.2 |
| 20260505233840 | 82 | 234 | 2.6 | 6.1 | 0.00 | 0.00 | 0.00 | 32 | 1009.2 |
| 20260505232822 | 82 | 24 | 1.7 | 5.2 | 0.00 | 0.00 | 0.00 | 33 | 1009.2 |